{"data":{"norad_id":64221,"epoch":"2026-09-19T10:33:15.941376Z","epoch_age_seconds":229190,"freshness":"STALE","line1":"1 64221U 25117U   26262.43976784  .00015763  00000+0  47651-3 0  9994","line2":"2 64221  53.1554 216.5405 0001252  89.3207 270.7939 15.34411258 74262","mean_motion":15.34411258,"eccentricity":0.0001252,"inclination_deg":53.1554,"raan_deg":216.5405,"arg_perigee_deg":89.3207,"mean_anomaly_deg":270.7939,"bstar":0.00047651,"rev_number":7426,"period_min":93.847069518829,"perigee_km":461.81331025441,"apogee_km":463.52624827194,"semimajor_km":6840.8067792632,"source":"CELESTRAK","updated_at":"2026-09-21T09:00:35.273870Z"}}